Lexington Weather

Lexington, Massachusetts, USA

45°F
3/22/2023 9:33am 
  • Lexington Conditions: Clear
  • Temperature: 45.0°F / 7.2°CWarmer 6.9°F than last hour.
  • Dew Point: 34.3°FIncreased 0.5°Fsince last hour.
  • Relative Humidity: 66%Decreased 18.0% since last hour.
  • Wind: Calm, 10-min avg: Calm, gust: 3 mph
  • Barometer: 30.39 in Steady
  • Visibility: 10 miles
  • Rain Today: 0.00 in
  •   

Regional Weather Roundup
for Boston, MA

        
000
ASUS41 KBOX 160210
RWRBOX

REGIONAL WEATHER ROUNDUP
NATIONAL WEATHER SERVICE BOSTON/NORTON MA
1000 PM EDT WED MAR 15 2023

NOTE:  "FAIR" INDICATES FEW OR NO CLOUDS BELOW 12,000 FEET WITH NO 
SIGNIFICANT WEATHER AND/OR OBSTRUCTIONS TO VISIBILITY.

MAZALL-160300-
EASTERN MASSACHUSETTS
  
CITY           SKY/WX    TMP DP  RH WIND       PRES   REMARKS
BOSTON         PTCLDY    37  25  61 NW18G26   29.80R WCI  27          
BEVERLY        CLEAR     35  25  66 NW17G24   29.78R WCI  25          
LAWRENCE       CLEAR     36  24  62 NW9G18    29.81R WCI  29          
BEDFORD        CLEAR     36  24  62 NW14G24   29.81R WCI  27          
NORWOOD        CLEAR     38  24  57 NW15G22   29.81R WCI  29          
MARSHFIELD     CLOUDY    37  25  60 NW15G28   29.77R WCI  28          
PLYMOUTH       PTCLDY    36  24  62 NW14G21   29.77R WCI  27          
TAUNTON          N/A    N/A N/A N/A MISG      29.79R                  
NEW BEDFORD    CLEAR     38  25  59 NW8G17    29.79R                  
$$

MAZALL-160300-
CAPE COD AND THE ISLANDS
  
CITY           SKY/WX    TMP DP  RH WIND       PRES   REMARKS
FALMOUTH       CLOUDY    37  23  56 NW16G23   29.76R WCI  28          
HYANNIS        CLOUDY    37  27  67 NW20G35   29.70R WCI  27          
CHATHAM        CLOUDY    41  29  62 NW13G23   29.73R                  
PROVINCETOWN   CLOUDY    38  29  70 NW25G33   29.75R WCI  27          
NANTUCKET      CLOUDY    39  27  62 NW18G29   29.74R WCI  30          
MARTHAS VNYRD  CLOUDY    39  24  55 NW17G29   29.77R WCI  30          
$$
 
MAZALL-160300-
CENTRAL AND WESTERN MASSACHUSETTS
  
CITY           SKY/WX    TMP DP  RH WIND       PRES   REMARKS
WORCESTER      CLEAR     33  23  66 NW16G26   29.80R WCI  23          
FITCHBURG      CLEAR     35  22  58 NW9       29.83R WCI  28          
ORANGE         CLEAR     33  23  66 N5        29.85R WCI  29          
SPRINGFIELD    PTCLDY    36  22  56 NW7G17    29.85R WCI  30          
WESTFIELD      CLEAR     34  24  67 NW17G25   29.86R WCI  23          
NORTH ADAMS    CLOUDY    33  23  66 W6        29.92R WCI  28          
PITTSFIELD     PTCLDY    28  18  66 W9        29.89R WCI  19          
$$
 
RIZALL-160300-
RHODE ISLAND
  
CITY           SKY/WX    TMP DP  RH WIND       PRES   REMARKS
PROVIDENCE     PTCLDY    36  23  59 NW15G26   29.82R WCI  27          
NEWPORT        CLEAR     36  24  62 NW18G28   29.80R WCI  26          
BLOCK ISLAND   CLEAR     37  23  56 NW13G21   29.85R WCI  29          
SMITHFIELD     CLEAR     34  24  67 NW10G25   29.81R WCI  26          
WESTERLY       CLEAR     37  24  59 VRB6      29.84R                  
$$
 
CTZALL-160300-
CONNECTICUT
  
CITY           SKY/WX    TMP DP  RH WIND       PRES   REMARKS
BRADLEY INTL   PTCLDY    35  23  61 NW18G30   29.87R WCI  24          
HARTFORD       CLEAR     37  22  54 NW13G20   29.89R WCI  29          
BRIDGEPORT     CLEAR     38  20  48 NW14G22   29.93R WCI  30          
DANBURY        CLEAR     37  19  48 NW7       29.94R WCI  32          
GROTON         CLEAR     38  24  57 NW17G24   29.85R WCI  28          
NEW HAVEN      CLEAR     39  22  50 N18G24    29.90R WCI  30          
CHESTER        FAIR      34  23  64 W14G23    29.86S WCI  24          
MERIDEN        FLURRIES  37  19  48 NW17G31   29.90R WCI  27          
WILLIMANTIC    CLEAR     35  25  66 NW8       29.86R WCI  29          
OXFORD         CLEAR     33  19  56 NW13G21   29.91R WCI  24          
$$

MEZ002-015-021-024-NHZ003-005-008-011-012-014-VTZ005-008-160300-
NORTHERN NEW ENGLAND
  
CITY           SKY/WX    TMP DP  RH WIND       PRES   REMARKS
PORTLAND ME    CLEAR     36  21  54 NW14G25   29.75R WCI  27          
BANGOR ME      CLOUDY    35  28  75 N20G28    29.68R WCI  24          
CONCORD NH     CLOUDY    35  25  66 NW16G26   29.81R WCI  25          
MANCHESTER NH  PTCLDY    36  25  64 NW17      29.80R WCI  26          
NASHUA NH      PTCLDY    35  25  66 NW14G20   29.82R WCI  26          
PORTSMOUTH NH  PTCLDY    34  24  67 W9        29.77R WCI  27          
JAFFREY NH     CLEAR     32  23  69 CALM      29.81R                  
KEENE NH       CLEAR     33  24  69 NW7         N/A  WCI  27          
BURLINGTON VT  PTCLDY    33  19  56 CALM      29.93R                  
MT. WASHINGTON SNOW      12  12 100 NW84G93     N/A  VSB 0   WCI -18  
$$

NYZ052-076-160300-
EASTERN NEW YORK
  
CITY           SKY/WX    TMP DP  RH WIND       PRES   REMARKS
ALBANY         PTCLDY    33  18  53 W16       29.97R WCI  23          
NEW YORK CITY  PTCLDY    39  17  41 NW22G29   29.97R WCI  29          
$$
 
ANZALL-160300-
MARINE OBSERVATIONS
  
STATION/POSITION TIME  TEMP    WIND        PRES    VSBY  WAVE
                       AIR SEA DIR/SP/G                  HT/PER
                 (UTC) (F)     (DEG/KT/KT) (MB)    (MI)  (FT/S)
BOSTON BUOY      0150      41              1008.9R         6/10
BUZZARDS BAY     0100   38     340/ 26/ 31 1008.4R
NANTUCKET SOUND  0150   40 41  310/ 21/ 27 1007.3R         3/ 4
MASS BAY-STELLWA 0004   40 40  320/ 17/ 23 1004.8R  1 7/8  8/11
ISLE OF SHOALS   0100   38     320/ 16/ 18 1007.0R
S OF BLOCK IS    0156      42                N/A           8/ 6
$$

......................KEY.........................
  SKY/WX - SKY CONDITION/PRESENT WEATHER
  TMP    - TEMPERATURE IN FAHRENHEIT
  DWPT   - DEWPOINT IN FAHRENHEIT
  RH     - RELATIVE HUMIDITY IN PERCENT
  WIND   - DIRECTION AND SPEED IN MPH
  PRES   - MEAN SEA LEVEL PRESSURE IN INCHES OF HG
  WCI    - WIND CHILL INDEX
  VSB    - VISIBILITY IN MILES
  HX     - HEAT INDEX
  TC     - TEMPERATURE IN CELSIUS
  VRB    - VARIABLE WIND DIRECTION
  N/A    - NOT AVAILABLE
  
      

Other recent Regional Weather Roundups

Wed Mar 22, 9:10am EDT

Wed Mar 22, 8:10am EDT

Wed Mar 22, 7:10am EDT

Wed Mar 22, 6:10am EDT

Wed Mar 22, 5:10am EDT

Wed Mar 22, 4:10am EDT

Wed Mar 22, 3:10am EDT

Wed Mar 22, 2:10am EDT

Wed Mar 22, 1:10am EDT

Wed Mar 22, 12:10am EDT

Tue Mar 21, 11:10pm EDT

Tue Mar 21, 10:10pm EDT

Tue Mar 21, 9:10pm EDT

Tue Mar 21, 8:10pm EDT

Tue Mar 21, 7:10pm EDT

Tue Mar 21, 6:10pm EDT

Tue Mar 21, 5:10pm EDT

Tue Mar 21, 4:10pm EDT

Tue Mar 21, 3:10pm EDT

Tue Mar 21, 2:10pm EDT

Tue Mar 21, 1:10pm EDT

Tue Mar 21, 12:10pm EDT

Tue Mar 21, 11:10am EDT

Tue Mar 21, 10:10am EDT

Tue Mar 21, 9:10am EDT

Tue Mar 21, 8:10am EDT

Tue Mar 21, 7:10am EDT

Tue Mar 21, 6:10am EDT

Tue Mar 21, 5:10am EDT

Tue Mar 21, 4:10am EDT

Tue Mar 21, 3:10am EDT

Tue Mar 21, 2:10am EDT

Tue Mar 21, 1:10am EDT

Tue Mar 21, 12:10am EDT

Mon Mar 20, 11:10pm EDT

Mon Mar 20, 10:10pm EDT

Mon Mar 20, 9:10pm EDT

Mon Mar 20, 8:10pm EDT

Mon Mar 20, 7:10pm EDT

Mon Mar 20, 6:10pm EDT

Mon Mar 20, 5:10pm EDT

Mon Mar 20, 4:10pm EDT

Mon Mar 20, 3:10pm EDT

Mon Mar 20, 2:10pm EDT

Mon Mar 20, 1:10pm EDT

Mon Mar 20, 12:10pm EDT

Mon Mar 20, 11:10am EDT

Mon Mar 20, 10:10am EDT

Mon Mar 20, 9:10am EDT

Mon Mar 20, 8:10am EDT

Mon Mar 20, 7:10am EDT

Mon Mar 20, 6:10am EDT

Mon Mar 20, 5:10am EDT

Mon Mar 20, 4:10am EDT

Mon Mar 20, 3:10am EDT

Mon Mar 20, 2:10am EDT

Mon Mar 20, 1:10am EDT

Mon Mar 20, 12:10am EDT

Sun Mar 19, 11:10pm EDT

Sun Mar 19, 10:10pm EDT

Sun Mar 19, 9:10pm EDT

Sun Mar 19, 8:10pm EDT

Sun Mar 19, 7:10pm EDT

Sun Mar 19, 6:10pm EDT

Sun Mar 19, 5:10pm EDT

Sun Mar 19, 4:10pm EDT

Sun Mar 19, 3:10pm EDT

Sun Mar 19, 2:10pm EDT

Sun Mar 19, 1:10pm EDT

Sun Mar 19, 12:10pm EDT

Sun Mar 19, 11:10am EDT

Sun Mar 19, 10:10am EDT

Sun Mar 19, 9:10am EDT

Sun Mar 19, 8:10am EDT

Sun Mar 19, 7:10am EDT

Sun Mar 19, 6:10am EDT

Sun Mar 19, 5:10am EDT

Sun Mar 19, 4:10am EDT

Sun Mar 19, 3:10am EDT

Sun Mar 19, 2:10am EDT

Sun Mar 19, 1:10am EDT

Sun Mar 19, 12:10am EDT

Sat Mar 18, 11:10pm EDT

Sat Mar 18, 10:10pm EDT

Sat Mar 18, 9:10pm EDT

Sat Mar 18, 8:10pm EDT

Sat Mar 18, 7:10pm EDT

Sat Mar 18, 6:10pm EDT

Sat Mar 18, 5:10pm EDT

Sat Mar 18, 4:10pm EDT

Sat Mar 18, 3:10pm EDT

Sat Mar 18, 2:10pm EDT

Sat Mar 18, 1:10pm EDT

Sat Mar 18, 12:10pm EDT

Sat Mar 18, 11:10am EDT

Sat Mar 18, 10:10am EDT

Sat Mar 18, 9:10am EDT

Sat Mar 18, 8:10am EDT

Sat Mar 18, 7:10am EDT

Sat Mar 18, 6:10am EDT

Sat Mar 18, 5:10am EDT

Sat Mar 18, 4:10am EDT

Sat Mar 18, 3:10am EDT

Sat Mar 18, 2:10am EDT

Sat Mar 18, 1:10am EDT

Sat Mar 18, 12:10am EDT

Fri Mar 17, 11:10pm EDT

Fri Mar 17, 10:10pm EDT

Fri Mar 17, 9:10pm EDT

Fri Mar 17, 8:10pm EDT

Fri Mar 17, 7:10pm EDT

Fri Mar 17, 6:10pm EDT

Fri Mar 17, 5:10pm EDT

Fri Mar 17, 4:10pm EDT

Fri Mar 17, 3:10pm EDT

Fri Mar 17, 2:10pm EDT

Fri Mar 17, 1:10pm EDT

Fri Mar 17, 12:10pm EDT

Fri Mar 17, 11:10am EDT

Fri Mar 17, 10:10am EDT

Fri Mar 17, 9:10am EDT

Fri Mar 17, 8:10am EDT

Fri Mar 17, 7:10am EDT

Fri Mar 17, 6:10am EDT

Fri Mar 17, 5:10am EDT

Fri Mar 17, 4:10am EDT

Fri Mar 17, 3:10am EDT

Fri Mar 17, 2:10am EDT

Fri Mar 17, 1:10am EDT

Fri Mar 17, 12:10am EDT

Thu Mar 16, 11:10pm EDT

Thu Mar 16, 10:10pm EDT

Thu Mar 16, 9:10pm EDT

Thu Mar 16, 8:10pm EDT

Thu Mar 16, 7:10pm EDT

Thu Mar 16, 6:10pm EDT

Thu Mar 16, 5:10pm EDT

Thu Mar 16, 4:10pm EDT

Thu Mar 16, 3:10pm EDT

Thu Mar 16, 2:10pm EDT

Thu Mar 16, 1:10pm EDT

Thu Mar 16, 12:10pm EDT

Thu Mar 16, 11:10am EDT

Thu Mar 16, 10:10am EDT

Thu Mar 16, 9:10am EDT

Thu Mar 16, 8:10am EDT

Thu Mar 16, 7:10am EDT

Thu Mar 16, 6:10am EDT

Thu Mar 16, 5:10am EDT

Thu Mar 16, 4:10am EDT

Thu Mar 16, 3:10am EDT

Thu Mar 16, 2:10am EDT

Thu Mar 16, 1:10am EDT

Thu Mar 16, 12:10am EDT

Wed Mar 15, 11:10pm EDT

Wed Mar 15, 9:10pm EDT

Wed Mar 15, 8:10pm EDT

Wed Mar 15, 7:10pm EDT

Wed Mar 15, 6:10pm EDT

Wed Mar 15, 5:10pm EDT

Wed Mar 15, 4:10pm EDT

Wed Mar 15, 3:10pm EDT

Wed Mar 15, 2:10pm EDT

Wed Mar 15, 1:10pm EDT

Wed Mar 15, 12:10pm EDT

Wed Mar 15, 11:10am EDT

Wed Mar 15, 10:10am EDT